Prescott, AZ

12:09 AM MST on November 15, 2019 (GMT -0700)
Love

Weather History for KPRC - May, 2019

Change the Weather History Date:

Wednesday, May 8, 2019

  Actual Average Record
Temperature  
Mean Temperature 57 °F 59 °F  
Max Temperature 68 °F 74 °F 91 °F (1989)
Min Temperature 45 °F 45 °F 26 °F (1965)
Degree Days  
Heating Degree Days 8    
Month to date heating degree days 60  
Since 1 July heating degree days 4109  
Cooling Degree Days 0    
Month to date cooling degree days 0  
Year to date cooling degree days 1  
Growing Degree Days 7 (Base 50)    
Moisture  
Dew Point 42 °F    
Average Humidity 70    
Maximum Humidity 100    
Minimum Humidity 26    
Precipitation  
Precipitation 0.34 in 0.02 in 0.40 in (1976)
Month to date precipitation 0.61 0.12  
Year to date precipitation 6.13 4.20  
Sea Level Pressure  
Sea Level Pressure 29.85 in    
Wind  
Wind Speed 8 mph (West)    
Max Wind Speed 23 mph    
Max Gust Speed 29 mph    
Visibility 10 miles    
Events Rain , Thunderstorm    
T = Trace of Precipitation, MM = Missing Value Source: NWS Daily Summary

Daily Weather History Graph

Daily Weather History Graph

Search for Another Location

Airport or City:

Astronomy

May. 08, 2019 Rise Set
Actual Time 5:32 AM MST 7:20 PM MST
Civil Twilight 5:05 AM MST 7:47 PM MST
Nautical Twilight 4:32 AM MST 8:20 PM MST
Astronomical Twilight 3:57 AM MST 8:55 PM MST
Moon 8:36 AM MST (5/8) 11:20 PM MST (5/8)
Length of Visible Light 14h 42m
Length of Day
13h 47m
Waxing Crescent, 16% of the Moon is Illuminated
May 8
Waxing Crescent
May 11
First Quarter
May 18
Full
May 26
Last Quarter
Jun 3
New

Hourly Weather History & Observations

Time (MST) Temp. Dew Point Humidity Pressure Visibility Wind Dir Wind Speed Gust Speed Precip Events Conditions
12:53 AM 46.9 °F 45.0 °F 93% 29.87 in 10.0 mi South 4.6 mph - N/A   Mostly Cloudy
1:53 AM 46.9 °F 44.1 °F 90% 29.86 in 10.0 mi SSW 4.6 mph - N/A   Mostly Cloudy
2:53 AM 46.9 °F 44.1 °F 90% 29.88 in 10.0 mi NNW 10.4 mph - N/A   Overcast
3:53 AM 46.9 °F 45.0 °F 93% 29.88 in 10.0 mi Calm Calm - 0.02 in Rain Light Rain
4:18 AM 48.0 °F 46.0 °F 93% 30.01 in 10.0 mi North 5.8 mph - 0.00 in   Overcast
4:27 AM 46.9 °F 46.0 °F 97% 30.01 in 10.0 mi NNE 5.8 mph - 0.00 in   Overcast
4:53 AM 46.9 °F 45.0 °F 93% 29.89 in 10.0 mi Calm Calm - 0.00 in   Overcast
5:40 AM 46.9 °F 46.0 °F 97% 29.99 in 10.0 mi SSW 3.5 mph - N/A   Scattered Clouds
5:53 AM 46.9 °F 46.0 °F 97% 29.88 in 10.0 mi SSW 4.6 mph - N/A   Mostly Cloudy
6:53 AM 48.0 °F 46.0 °F 93% 29.87 in 10.0 mi Calm Calm - N/A   Mostly Cloudy
7:53 AM 51.1 °F 46.0 °F 83% 29.86 in 10.0 mi SE 4.6 mph - N/A   Clear
8:53 AM 55.9 °F 45.0 °F 67% 29.85 in 10.0 mi Variable 3.5 mph - N/A   Mostly Cloudy
9:53 AM 60.1 °F 45.0 °F 57% 29.83 in 10.0 mi WNW 4.6 mph - N/A   Mostly Cloudy
10:53 AM 55.9 °F 46.9 °F 72% 29.81 in 10.0 mi SW 19.6 mph - 0.03 in Rain Light Rain
11:46 AM 54.0 °F 44.1 °F 69% 29.96 in 10.0 mi North 5.8 mph - 0.08 in Rain Light Rain
11:53 AM 54.0 °F 46.9 °F 77% 29.83 in 10.0 mi WNW 4.6 mph - 0.10 in Rain , Thunderstorm Light Thunderstorms and Rain
12:53 PM 54.0 °F 46.0 °F 75% 29.81 in 10.0 mi WSW 9.2 mph - 0.19 in Rain , Thunderstorm Light Rain
1:53 PM 55.0 °F 45.0 °F 69% 29.79 in 10.0 mi South 8.1 mph - 0.00 in Thunderstorm Thunderstorm
2:53 PM 59.0 °F 46.0 °F 62% 29.77 in 10.0 mi West 11.5 mph 17.3 mph 0.00 in Thunderstorm Partly Cloudy
3:12 PM 66.9 °F 37.0 °F 33% 29.90 in 10.0 mi NNW 18.4 mph 27.6 mph N/A   Scattered Clouds
3:53 PM 66.9 °F 35.1 °F 31% 29.73 in 10.0 mi NNW 18.4 mph 27.6 mph N/A   Scattered Clouds
4:53 PM 68.0 °F 35.1 °F 30% 29.72 in 10.0 mi NNW 16.1 mph 23.0 mph N/A   Clear
5:53 PM 66.0 °F 30.9 °F 27% 29.74 in 10.0 mi NW 13.8 mph - N/A   Mostly Cloudy
6:16 PM 62.1 °F 37.0 °F 39% 29.90 in 10.0 mi NNE 15.0 mph - N/A   Overcast
6:53 PM 62.1 °F 34.0 °F 35% 29.76 in 10.0 mi North 10.4 mph - N/A   Overcast
7:53 PM 55.9 °F 37.0 °F 49% 29.79 in 10.0 mi Calm Calm - N/A   Scattered Clouds
8:53 PM 52.0 °F 39.0 °F 61% 29.81 in 10.0 mi SSW 6.9 mph - N/A   Scattered Clouds
9:53 PM 48.9 °F 39.9 °F 71% 29.82 in 10.0 mi South 9.2 mph - N/A   Clear
10:53 PM 46.9 °F 39.9 °F 77% 29.83 in 10.0 mi South 6.9 mph - N/A   Clear
11:53 PM 46.9 °F 37.9 °F 71% 29.83 in 10.0 mi South 10.4 mph - N/A   Clear